User: anonymous   Login
Location: Clinton NY
(43.0598°N, 75.3602°W)
Time: 00:12:46
(UTC-04:00)
Language:

Iridium 42 - Orbit

View from above orbital plane
View from above orbital plane
View from above satellite
View from above satellite

Ground track
Ground track

The orbit data is extracted from the following two-line orbital elements,

1 25077U 97077A   15114.29036966  .00000322  00000-0  10746-3 0  9992
2 25077 086.3983 350.0688 0002043 085.7251 274.4178 14.34365313909674
Epoch (UTC): 24 April 2015 06:58:07
Eccentricity: 0.0002043
inclination: 86.3983°
perigee height: 776 km
apogee height: 778 km
right ascension of ascending node: 350.0688°
argument of perigee: 85.7251°
revolutions per day: 14.34365313
mean anomaly at epoch: 274.4178°
orbit number at epoch: 90967

The dashed part of the orbit path shows where the satellite is in the earth's shadow,  

DLR